Home > Weather > Szeged > Past weeks

Flag for Hungary Weather for the Past 2 Weeks in Szeged, Hungary

Now
46 °F

Overcast.


Feels Like: 43 °F
Forecast: 45 / 57 °F
Wind: 6 mph from Southeast

Location: Szeged

Current Time: Feb 8, 2016 at 12:14:53 PM

Latest Report: Feb 8, 2016 at 11:00 AM


Visibility: 16 mi

Pressure: 30.09 "Hg

Humidity: 70%

Dew point: 36 °F

Location of SzegedLocation

Historic Weather in Szeged — Graph

°F

Szeged Temperature Yesterday

Maximum temperature yesterday: 49 °F (at 2:00 PM)
Minimum temperature yesterday: 32 °F (at 6:00 AM)
Average temperature yesterday: 41 °F

High & Low Weather Summary for the Past Weeks

 TemperatureHumidityPressure
High60 °F (Feb 2, 2:00 PM)100% (Jan 25, 10:00 PM)30.60 "Hg (Jan 25, 10:00 PM)
Low26 °F (Jan 24, 11:00 AM)56% (Feb 4, 3:00 PM)29.91 "Hg (Jan 31, 5:00 AM)
Average40 °F88%30.25 "Hg
* Reported Jan 24 11:00 AM — Feb 8 11:00 AM, Szeged, Weather by CustomWeather, © 2016

Note: Actual official high and low records may vary slightly from our data, if they occured in-between our weather recording intervals... More about our weather records

Advertising

Szeged Weather History for the Previous 24 Hours

 ConditionsComfort  
Time TempWeatherWind HumidityBarometerVisibility
11:00 AM
Mon, Feb 8
46 °FOvercast.6 mph70%30.09 "Hg16 mi
10:00 AM44 °FOvercast.6 mph68%30.09 "Hg16 mi
9:00 AM40 °FOvercast.6 mph75%30.10 "Hg16 mi
8:00 AM38 °FOvercast.6 mph78%30.10 "Hg16 mi
7:00 AM37 °FPartly sunny.6 mph79%30.09 "Hg16 mi
6:00 AM37 °FOvercast.6 mph78%30.09 "Hg16 mi
5:00 AM37 °FOvercast.7 mph78%30.08 "Hg16 mi
4:00 AM37 °FOvercast.7 mph77%30.08 "Hg16 mi
2:00 AM37 °FPassing clouds.6 mph78%30.09 "Hg16 mi
11:00 PM
Sun, Feb 7
38 °FClear.6 mph75%30.08 "Hg16 mi
10:00 PM39 °FPassing clouds.6 mph73%30.08 "Hg16 mi
9:00 PM41 °FPassing clouds.7 mph70%30.08 "Hg16 mi
8:00 PM41 °FPassing clouds.6 mph77%30.08 "Hg16 mi
7:00 PM44 °FPassing clouds.6 mph73%30.07 "Hg16 mi
6:00 PM45 °FPassing clouds.6 mph75%30.07 "Hg12 mi
5:00 PM47 °FOvercast.6 mph72%30.07 "Hg12 mi
4:00 PM48 °FOvercast.5 mph69%30.07 "Hg14 mi
3:00 PM49 °FOvercast.8 mph64%30.09 "Hg16 mi
2:00 PM49 °FOvercast.6 mph62%30.10 "Hg19 mi
1:00 PM48 °FPartly sunny.6 mph61%30.13 "Hg19 mi
12:00 PM45 °FPartly sunny.7 mph65%30.16 "Hg19 mi
Weather by CustomWeather, © 2016

See weather overviewHow to use our weather pages